Weather History for CYMX - October, 2012

Change the Weather History Date:

Friday, October 12, 2012

  Actual Average Record
Temperature  
Mean Temperature 38 °F -  
Max Temperature 44 °F 54 °F 71 °F (2003)
Min Temperature 32 °F 37 °F 30 °F (1997)
Degree Days  
Heating Degree Days 27    
Moisture  
Dew Point 29 °F    
Average Humidity 68    
Maximum Humidity 100    
Minimum Humidity 42    
Precipitation  
Precipitation 0.00 in - - ()
Sea Level Pressure  
Sea Level Pressure 30.13 in    
Wind  
Wind Speed 8 mph ()    
Max Wind Speed 14 mph    
Max Gust Speed 25 mph    
Visibility 15.0 miles    
Events Rain    
Averages and records for this station are not official NWS values.
T = Trace of Precipitation, MM = Missing Value Source: Averaged Metar Reports

Daily Weather History Graph

Daily Weather History Graph

Search for Another Location

Airport or City:

Trip Planner

Search our weather history database for the weather conditions in past years. The results will help you decide how hot, cold, wet, or windy it might be!

Date:

Astronomy

Oct. 12, 2012 Rise Set
Actual Time 7:09 AM EDT 6:14 PM EDT
Civil Twilight 6:39 AM EDT 6:44 PM EDT
Nautical Twilight 6:04 AM EDT 7:19 PM EDT
Astronomical Twilight 5:30 AM EDT 7:53 PM EDT
Moon 3:40 AM EDT (10/12) 4:29 PM EDT (10/12)
Length of Visible Light 12h 05m
Length of Day
11h 05m
Waning Crescent, 11% of the Moon is Illuminated
Oct 12
Waning Crescent
Oct 15
New
Oct 21
First Quarter
Oct 29
Full
Nov 6
Last Quarter

Hourly Weather History & Observations

Time (EDT) Temp. Windchill Dew Point Humidity Pressure Visibility Wind Dir Wind Speed Gust Speed Precip Events Conditions
12:00 AM 41.0 °F 38.0 °F 41.0 °F 100% 29.89 in 15.0 mi SW 4.6 mph - N/A Rain Light Rain
1:00 AM 42.8 °F 37.5 °F 41.0 °F 93% 29.88 in 15.0 mi WSW 9.2 mph - N/A Rain Light Rain
2:00 AM 44.6 °F 38.8 °F 41.0 °F 87% 29.88 in 25.0 mi WSW 11.5 mph 17.3 mph N/A Rain Light Rain
2:49 AM 42.8 °F 35.8 °F 39.2 °F 87% 29.88 in 25.0 mi WSW 13.8 mph 21.9 mph N/A   Overcast
3:00 AM 42.8 °F 36.6 °F 37.4 °F 81% 29.88 in 25.0 mi West 11.5 mph 23.0 mph N/A   Overcast
4:00 AM 41.0 °F 34.3 °F 33.8 °F 76% 29.92 in 25.0 mi WSW 11.5 mph 24.2 mph N/A   Overcast
5:00 AM 39.2 °F 32.0 °F 32.0 °F 75% 29.96 in 25.0 mi West 11.5 mph 18.4 mph N/A   Mostly Cloudy
6:00 AM 37.4 °F 32.8 °F 32.0 °F 81% 30.01 in 25.0 mi West 5.8 mph - N/A   Scattered Clouds
7:00 AM 35.6 °F 30.7 °F 30.2 °F 81% 30.07 in 45.0 mi West 5.8 mph - N/A   Partly Cloudy
8:00 AM 35.6 °F 30.7 °F 30.2 °F 81% 30.10 in 45.0 mi West 5.8 mph - N/A   Partly Cloudy
9:00 AM 39.2 °F 32.5 °F 28.4 °F 65% 30.14 in 45.0 mi NNW 10.4 mph 18.4 mph N/A   Scattered Clouds
10:00 AM 41.0 °F 33.5 °F 28.4 °F 61% 30.18 in 45.0 mi NNW 13.8 mph 21.9 mph N/A   Scattered Clouds
11:00 AM 41.0 °F 33.5 °F 24.8 °F 53% 30.17 in 45.0 mi NNW 13.8 mph 20.7 mph N/A   Mostly Cloudy
12:00 PM 41.0 °F 33.9 °F 23.0 °F 49% 30.20 in 45.0 mi NW 12.7 mph 25.3 mph N/A   Mostly Cloudy
1:00 PM 41.0 °F 33.5 °F 24.8 °F 53% 30.20 in 45.0 mi NNW 13.8 mph 24.2 mph N/A   Mostly Cloudy
2:00 PM 42.8 °F 36.6 °F 23.0 °F 46% 30.22 in 45.0 mi NW 11.5 mph 18.4 mph N/A   Mostly Cloudy
3:00 PM 42.8 °F 37.5 °F 23.0 °F 46% 30.24 in 45.0 mi WNW 9.2 mph 18.4 mph N/A   Mostly Cloudy
4:00 PM 42.8 °F 37.0 °F 23.0 °F 46% 30.27 in 45.0 mi NW 10.4 mph 17.3 mph N/A   Mostly Cloudy
5:00 PM 42.8 °F 36.6 °F 21.2 °F 42% 30.28 in 45.0 mi NW 11.5 mph 21.9 mph N/A   Mostly Cloudy
6:00 PM 39.2 °F 35.0 °F 26.6 °F 61% 30.31 in 45.0 mi WNW 5.8 mph - N/A   Partly Cloudy
8:00 PM 35.6 °F 32.8 °F 24.8 °F 65% 30.35 in 25.0 mi WNW 3.5 mph - N/A   Partly Cloudy
9:00 PM 35.6 °F 30.7 °F 24.8 °F 65% 30.37 in 25.0 mi WNW 5.8 mph - N/A   Partly Cloudy
10:00 PM 32.0 °F 28.7 °F 24.8 °F 75% 30.39 in 25.0 mi WSW 3.5 mph - N/A   Clear
11:00 PM 32.0 °F 28.7 °F 23.0 °F 69% 30.40 in 25.0 mi WSW 3.5 mph - N/A   Clear